Wind_Speed
21 21 22 22 22 21 21 21 20 20 20 19 18 18 19 19 19 19 15 19 12 9 10 17 11 6 5 4 5 5 3 7 10 9 5 3 2 4 1 3 3 5 7 6 30
22 22 22 22 22 21 21 20 19 19 19 18 17 17 18 18 21 20 17 8 11 17 17 5 4 1 3 5 5 5 5 8 6 8 5 3 2 4 1 0 2 3 2 19 33
23 23 23 23 22 22 21 20 19 18 17 16 15 15 17 15 6 7 10 8 16 12 20 14 7 2 3 4 5 5 8 5 5 4 4 3 3 4 2 4 6 8 7 10 20
23 23 23 23 23 22 21 20 18 16 16 14 12 11 14 6 3 2 5 19 20 19 13 12 5 3 5 7 4 5 9 6 5 4 4 2 3 8 4 7 1 10 14 12 12
24 24 24 24 23 22 20 18 17 15 15 13 10 8 6 3 9 13 16 17 10 12 10 7 6 5 5 2 3 8 4 4 11 8 5 3 6 8 10 11 9 14 10 18 13
26 25 25 24 22 19 17 16 15 13 12 11 6 3 1 4 5 12 14 12 7 8 5 5 6 7 3 4 8 2 9 13 8 6 3 5 5 6 6 5 4 12 16 16 14
27 26 25 23 21 20 17 15 13 9 7 7 4 2 3 13 6 15 17 18 10 10 4 10 19 5 6 4 4 6 3 6 7 6 5 7 9 19 12 5 8 14 17 7 9
29 28 25 22 20 18 17 16 13 7 3 2 2 4 7 10 12 20 15 16 14 11 17 16 12 7 3 5 7 4 5 4 4 10 8 10 18 2 10 9 10 12 15 9 6
30 29 24 20 17 15 18 19 6 1 2 4 2 3 9 8 6 10 5 6 6 9 14 11 6 6 4 4 4 3 4 5 4 13 8 16 6 11 9 9 9 11 13 10 11
32 31 23 19 16 15 18 13 0 1 2 2 4 4 7 3 6 10 6 6 2 3 4 10 7 5 3 4 7 4 3 4 8 6 10 7 3 3 6 7 9 10 11 10 9
36 32 23 18 15 15 14 2 3 2 4 7 4 5 15 8 10 4 2 5 2 4 6 5 5 12 14 6 8 4 3 3 6 6 6 4 6 7 5 6 7 7 8 7 9
44 34 23 17 18 8 4 1 3 6 6 8 12 9 19 8 4 4 4 3 3 1 3 2 7 5 7 6 7 8 3 3 3 3 4 1 4 7 7 4 11 10 8 11 7
46 38 20 16 13 1 9 9 4 5 1 6 6 6 3 4 3 2 3 2 3 3 3 2 6 11 8 8 9 8 4 2 2 3 1 2 4 3 2 4 3 5 10 9 14
48 38 19 15 2 8 6 5 6 3 3 5 5 1 2 4 3 1 1 2 2 5 3 7 6 11 7 8 10 6 6 6 5 3 3 3 3 4 5 4 2 5 7 9 12
50 33 17 11 9 4 4 8 3 3 4 9 6 3 4 1 6 2 2 2 4 3 6 5 3 2 5 3 3 4 8 8 5 2 1 2 5 6 8 4 9 12 9 9 9
51 23 15 5 6 5 4 5 1 5 4 6 4 8 9 2 2 4 1 3 3 3 2 6 4 2 4 5 7 7 4 3 4 3 2 5 5 4 6 9 4 11 11 11 11
44 17 11 7 3 2 5 2 5 5 6 7 8 11 13 4 2 2 1 2 2 0 2 3 4 4 4 1 4 3 6 1 3 1 5 3 5 8 3 5 8 15 14 13 11
38 11 11 12 15 13 1 5 7 5 7 5 7 12 4 3 1 1 2 3 6 3 2 1 2 8 5 4 5 4 5 4 5 5 2 2 5 5 5 7 6 10 16 12 10
34 11 7 17 18 2 5 5 4 4 5 6 11 4 5 9 9 1 4 3 4 9 5 2 4 3 7 6 4 1 2 2 5 1 4 3 5 4 6 3 5 8 8 9 8
19 12 7 28 3 3 5 3 3 4 5 4 3 4 5 6 8 3 3 5 4 10 4 3 4 3 2 3 2 4 7 1 3 3 3 4 4 5 1 6 6 6 10 12 9
7 4 15 27 3 5 2 4 5 4 1 2 4 7 6 8 10 4 5 5 3 1 8 3 2 4 6 4 5 3 0 5 5 3 4 1 5 1 8 7 11 14 15 16 16
7 3 16 22 4 2 3 4 6 3 1 4 3 5 5 10 6 5 5 3 3 2 6 4 3 2 7 4 7 6 6 5 4 2 2 3 6 1 6 8 10 12 16 15 16
4 3 7 8 3 4 6 6 4 3 3 3 3 4 5 5 5 10 6 6 10 5 4 4 2 2 2 5 4 5 4 5 6 3 4 4 5 3 11 11 12 12 10 13 12
3 4 4 4 2 3 4 5 7 9 4 3 4 4 7 5 3 10 9 8 17 8 11 5 3 3 5 5 5 1 5 4 5 3 4 5 6 10 13 13 14 6 8 11 12
4 2 0 5 4 6 3 3 6 7 6 3 3 3 5 5 10 2 6 14 8 7 7 4 5 5 4 8 10 9 8 9 9 5 6 5 3 5 7 6 6 5 17 17 16
3 3 4 4 5 5 6 6 6 9 3 6 6 9 7 5 4 11 11 6 7 6 7 5 3 2 2 4 14 14 9 11 7 4 5 7 4 2 6 9 11 9 16 17 14
7 4 2 5 5 4 2 6 9 9 7 6 6 5 5 5 10 17 14 15 16 8 5 4 3 4 3 4 6 3 7 13 6 5 7 7 6 9 8 12 11 9 10 16 17
Wind_Direction
339 336 334 331 330 327 324 321 319 317 316 316 316 319 315 316 318 300 270 263 251 290 290 266 280 255 226 225 206 137 160 211 210 196 162 58 113 263 240 129 9 206 169 224 162
338 337 334 331 329 326 321 317 317 311 312 312 315 316 318 315 314 280 280 285 294 265 260 231 250 308 219 212 201 180 195 215 187 162 117 26 349 323 63 359 27 330 271 146 157
338 336 331 329 328 325 322 318 315 311 307 313 309 315 320 326 323 246 117 48 355 354 236 231 253 299 208 197 216 214 228 184 214 143 103 178 289 301 7 220 186 206 221 185 156
340 335 331 329 329 326 322 318 313 309 305 303 315 319 320 323 303 241 265 323 335 354 207 223 211 216 189 209 217 250 221 228 251 115 99 174 327 305 245 233 148 233 180 190 175
336 334 331 331 332 331 327 320 310 299 301 301 300 307 342 326 253 318 321 334 352 1 190 222 196 175 188 205 212 243 268 256 232 264 230 205 214 240 267 275 285 226 222 197 192
337 336 332 332 333 335 336 328 309 298 296 301 289 311 133 270 257 322 320 314 315 333 301 264 229 206 256 244 200 224 187 250 251 234 221 192 230 197 252 211 260 182 204 210 171
338 337 334 332 331 328 330 341 331 306 296 304 251 215 221 248 280 309 292 287 264 263 263 262 221 218 194 283 244 253 273 264 228 195 188 159 269 230 238 259 261 188 211 149 103
341 338 336 334 332 333 334 334 323 319 316 257 201 187 251 257 298 295 304 279 269 238 238 263 257 235 206 318 329 224 162 195 243 167 181 169 248 144 206 193 226 214 210 148 118
343 343 340 337 333 333 328 332 300 305 113 137 166 186 266 294 258 306 296 251 266 222 237 235 165 183 246 175 323 286 190 187 299 175 157 186 242 176 197 186 219 215 204 179 140
345 343 344 342 334 332 324 331 244 205 155 188 238 265 258 295 288 301 310 235 290 271 264 201 204 172 230 159 203 177 169 171 196 208 202 175 252 288 153 176 212 180 195 179 159
349 344 344 342 334 329 320 346 5 307 187 210 218 256 283 311 298 5 94 146 294 45 173 207 198 208 213 231 276 5 129 166 180 228 185 167 167 223 242 145 198 197 165 160 157
356 349 343 339 335 325 317 198 219 258 312 227 247 245 272 260 282 9 125 83 34 300 135 175 225 220 213 209 238 275 296 267 261 270 172 103 188 216 199 168 176 190 183 157 138
355 354 341 331 331 279 303 242 228 212 286 289 216 237 299 179 287 312 110 199 149 279 86 302 277 234 230 199 217 238 207 263 221 312 227 99 334 171 66 75 144 196 196 167 166
353 351 342 331 330 310 275 260 207 226 21 294 331 266 139 338 263 150 306 209 190 210 118 250 211 203 213 216 198 230 208 239 288 55 158 104 230 207 159 95 102 173 180 187 160
354 350 338 316 298 291 328 178 175 61 15 314 290 286 145 98 300 323 275 24 234 213 161 256 172 90 247 238 164 219 182 198 211 162 100 328 98 270 125 172 190 205 202 196 185
353 347 327 325 288 287 120 190 24 41 308 330 299 314 322 246 211 302 308 198 184 287 224 245 296 270 209 217 198 244 212 67 61 114 70 217 116 284 190 194 156 199 210 196 190
353 336 325 295 286 127 2 79 26 65 305 296 320 326 323 272 179 272 172 317 287 296 350 291 206 215 193 251 195 145 97 63 60 62 213 225 101 240 253 218 180 179 202 202 201
351 328 326 343 312 302 97 53 51 269 282 303 298 319 318 317 124 279 282 269 230 179 274 225 315 170 177 185 176 176 139 148 160 179 184 272 207 241 223 190 214 191 189 195 190
350 340 333 349 328 185 73 45 215 285 272 302 319 319 340 27 343 281 230 252 228 176 188 227 268 152 168 150 151 177 134 194 105 23 72 239 306 282 151 107 149 172 156 201 202
342 331 336 354 145 92 70 249 230 227 300 297 313 352 320 22 339 338 261 217 238 192 159 276 311 153 115 71 251 105 163 117 9 121 155 296 291 224 176 186 150 170 202 199 193
1 16 353 0 170 47 111 253 276 265 5 301 311 293 310 345 319 264 268 287 247 184 157 212 112 325 106 202 162 99 271 64 104 75 137 77 270 16 285 230 195 201 202 194 188
350 355 357 355 46 29 333 289 275 278 303 289 269 250 300 315 308 265 256 276 328 117 169 227 134 285 207 213 165 145 168 121 112 203 171 160 273 206 334 288 229 221 196 201 190
341 279 345 22 61 333 313 301 284 297 279 307 289 359 322 295 313 307 297 316 9 244 181 214 312 360 64 40 16 104 161 116 107 96 190 137 263 322 3 350 313 232 184 191 160
17 348 327 35 41 38 334 291 333 326 284 280 282 311 322 302 223 289 311 319 333 358 32 124 129 231 186 207 139 284 163 175 130 126 176 220 299 350 351 348 348 93 109 131 124
26 342 123 310 341 332 263 308 335 358 314 297 299 4 317 300 309 331 332 329 314 1 23 58 184 205 189 248 152 249 183 167 195 193 164 204 209 322 4 10 22 50 103 110 112
41 12 358 296 298 314 350 354 342 338 282 325 328 310 289 259 293 309 317 322 277 334 14 356 311 342 211 121 179 207 204 189 207 165 101 149 178 82 75 62 51 55 111 106 108
1 357 105 298 326 359 353 320 323 339 291 309 290 305 296 265 287 275 258 259 251 289 345 298 342 24 300 326 124 164 191 180 193 178 138 196 162 123 88 69 32 28 79 99 96
Height
814 811 807 804 800 797 794 791 789 787 784 782 780 779 777 774 771 768 762 752 753 753 754 754 755 754 756 756 753 754 774 776 756 758 759 738 740 728 719 726 725 723 723 719 726
813 809 805 802 798 795 792 788 786 784 781 780 778 776 774 771 767 760 748 749 750 751 753 752 754 752 756 753 751 755 768 753 743 746 749 741 733 732 728 730 731 727 720 721 724
811 807 803 799 796 792 789 786 783 781 779 778 776 775 773 769 767 751 748 749 748 747 748 749 751 752 754 751 750 748 746 740 734 735 741 743 736 726 733 739 728 726 722 723 718
809 805 800 797 793 789 785 782 780 778 777 775 774 773 771 770 762 746 748 746 745 744 745 748 750 753 753 752 746 749 739 735 734 735 742 741 733 733 731 730 719 716 712 723 720
807 802 798 794 790 785 782 779 777 775 774 773 772 772 771 771 760 746 745 745 745 744 744 749 750 750 751 747 744 744 738 732 732 736 740 739 741 736 729 719 716 712 714 712 719
804 800 795 791 787 783 779 776 773 772 771 771 771 771 772 776 746 745 744 744 745 747 747 747 747 747 748 745 742 732 734 734 733 739 740 739 735 733 719 714 713 713 713 715 722
802 797 792 788 784 781 777 774 771 769 769 769 769 771 771 761 744 742 741 740 742 743 745 744 744 744 743 742 734 732 738 734 730 734 743 733 739 728 718 716 715 717 715 723 730
799 794 789 785 781 777 775 772 769 767 767 767 769 770 764 743 742 738 737 735 735 737 739 741 743 744 745 738 734 733 736 745 726 729 734 736 735 720 713 718 718 715 717 724 731
796 790 786 782 779 775 771 768 766 767 767 766 769 770 759 742 740 734 732 733 733 733 735 737 741 742 740 748 749 739 746 740 728 719 723 728 729 715 711 715 717 715 715 722 731
793 787 782 780 776 773 770 767 766 767 767 767 768 771 748 737 734 731 730 731 732 729 729 732 736 739 743 746 746 742 740 732 733 720 720 728 728 714 710 714 713 716 714 720 729
790 784 779 776 773 771 767 767 769 767 765 760 754 752 739 736 732 730 728 731 731 729 730 727 736 735 733 735 728 730 728 724 722 710 716 726 725 718 710 713 716 716 719 722 725
787 780 775 773 770 768 766 767 763 763 761 750 749 749 739 737 733 730 729 732 735 734 732 735 736 727 725 728 729 731 732 729 718 710 716 720 721 713 710 710 713 715 720 723 727
783 777 772 769 767 766 765 762 760 761 767 748 741 738 736 737 732 732 730 729 733 732 733 738 732 723 724 725 729 730 732 728 723 715 711 713 727 714 714 714 714 713 711 717 719
780 774 769 766 766 763 761 759 760 760 772 750 741 734 734 734 733 728 728 731 730 734 736 738 723 722 720 721 723 734 721 720 719 725 737 714 749 720 716 723 721 719 717 717 722
776 770 766 763 764 762 760 759 760 762 783 746 741 732 733 734 732 730 727 728 729 728 736 725 718 717 722 719 716 723 710 717 716 725 725 728 743 731 718 724 720 717 717 715 717
772 767 763 763 762 759 760 760 762 778 776 752 740 738 736 730 733 732 729 727 727 727 724 723 716 718 716 708 709 708 712 716 725 733 749 730 732 736 721 707 715 714 713 713 714
769 764 762 761 760 758 758 761 778 782 753 755 747 738 736 733 733 732 730 731 729 730 729 719 715 710 707 712 706 710 723 746 748 749 751 729 734 725 701 699 696 706 709 709 711
767 763 761 760 758 756 756 767 779 765 758 746 743 738 736 729 731 732 731 732 725 727 731 727 722 709 703 708 713 714 721 746 742 752 743 721 732 715 696 690 690 692 697 704 711
766 762 761 759 754 754 763 782 776 764 754 752 743 738 731 729 736 732 732 724 713 718 727 723 714 696 696 698 704 718 723 716 730 731 737 733 716 698 695 694 696 698 705 709 710
770 765 761 757 752 754 771 773 766 756 752 750 751 740 743 740 745 736 727 711 708 704 708 712 718 693 698 697 700 706 710 725 737 742 741 737 728 722 702 701 705 707 706 706 708
773 771 761 757 756 764 787 776 760 751 753 755 752 749 739 738 733 733 720 708 702 702 705 710 715 707 701 707 710 715 721 726 732 743 750 757 736 709 710 698 699 699 694 696 699
785 779 763 758 773 787 780 770 759 753 752 752 750 748 742 737 730 724 721 710 696 703 709 704 715 718 706 692 692 703 713 721 742 743 746 749 739 699 702 700 692 684 686 688 689
796 789 766 763 792 793 783 772 762 755 755 752 751 745 743 741 741 726 714 700 704 703 708 707 711 720 709 704 695 702 704 712 725 735 739 749 735 693 693 695 692 680 682 685 692
798 797 785 782 789 788 791 781 770 758 755 753 752 744 744 744 734 731 722 707 709 705 695 700 716 714 720 711 707 711 704 707 720 740 731 730 719 708 700 698 693 684 685 691 697
805 809 808 806 795 798 793 782 778 775 761 754 751 750 753 748 737 726 726 722 707 708 705 711 713 713 693 697 693 699 698 706 709 711 720 718 722 715 711 707 701 699 687 694 703
815 817 812 810 803 797 793 789 783 779 773 764 762 756 754 751 744 739 736 734 724 712 715 714 710 705 701 695 693 701 694 698 704 712 717 722 720 711 709 706 708 709 699 701 710
815 815 816 811 805 800 798 795 785 786 770 765 763 757 754 748 744 738 735 729 724 728 728 722 715 720 707 698 697 708 697 697 702 699 706 718 707 713 718 720 727 721 718 711 712